Weather History for Parkersburg, WV

Change the Weather History Date:

Monday, March 3, 2014

  Actual Average Record
Temperature  
Mean Temperature 15 °F 39 °F  
Max Temperature 24 °F 49 °F 79 °F (1974)
Min Temperature 6 °F 29 °F -5 °F (1980)
Degree Days  
Heating Degree Days 50 26  
Month to date heating degree days 115 79  
Since 1 July heating degree days 3878 3869  
Cooling Degree Days 0 0  
Month to date cooling degree days 0 0  
Year to date cooling degree days 0 0  
Moisture  
Dew Point 6 °F    
Average Humidity 65    
Maximum Humidity 92    
Minimum Humidity 38    
Precipitation  
Precipitation 0.03 in 0.10 in 0.05 in (2004)
Month to date precipitation 0.53 0.31  
Year to date precipitation 4.42 5.96  
Sea Level Pressure  
Sea Level Pressure 30.30 in    
Wind  
Wind Speed 7 mph (NNE)    
Max Wind Speed 18 mph    
Max Gust Speed 23 mph    
Visibility 6 miles    
Events Snow    
T = Trace of Precipitation, MM = Missing Value Source: NWS Daily Summary

Daily Weather History Graph

Daily Weather History Graph

Search for Another Location

Airport:

Trip Planner

Search our weather history database for the weather conditions in past years. The results will help you decide how hot, cold, wet, or windy it might be!

Date:

Astronomy

Mar. 03, 2014 Rise Set
Actual Time 6:55 AM EST 6:20 PM EST
Civil Twilight 6:28 AM EST 6:47 PM EST
Nautical Twilight 5:57 AM EST 7:18 PM EST
Astronomical Twilight 5:26 AM EST 7:49 PM EST
Moon 8:04 AM EST (3/3) 9:20 PM EST (3/3)
Length of Visible Light 12h 18m
Length of Day
11h 24m
Waxing Crescent, 8% of the Moon is Illuminated
Mar 3
Waxing Crescent
Mar 8
First Quarter
Mar 16
Full
Mar 23
Last Quarter
Mar 30
New

Hourly Weather History & Observations

Time (EST) Temp. Windchill Dew Point Humidity Pressure Visibility Wind Dir Wind Speed Gust Speed Precip Events Conditions
12:22 AM 19.0 °F 9.0 °F 15.1 °F 85% 30.18 in 2.0 mi NNE 8.1 mph - 0.00 in Snow Light Snow
12:30 AM 19.0 °F 7.5 °F 15.1 °F 85% 30.18 in 1.2 mi NNE 10.4 mph - 0.00 in Snow Light Snow
12:36 AM 19.0 °F 6.8 °F 15.1 °F 85% 30.19 in 0.8 mi NE 11.5 mph - 0.01 in Snow Light Snow
12:49 AM 17.6 °F 5.7 °F 15.8 °F 93% 30.19 in 0.8 mi NNE 10.4 mph - 0.01 in Snow Light Snow
12:53 AM 18.0 °F 8.7 °F 15.1 °F 88% 30.23 in 0.8 mi North 6.9 mph - 0.01 in Snow Light Snow
1:02 AM 18.0 °F 6.9 °F 12.9 °F 81% 30.20 in 1.0 mi NNE 9.2 mph 18.4 mph 0.01 in Snow Light Snow
1:22 AM 17.1 °F 2.5 °F 12.9 °F 84% 30.20 in 1.2 mi North 15.0 mph 19.6 mph 0.01 in Snow Light Snow
1:53 AM 16.0 °F 3.6 °F 12.0 °F 84% 30.24 in 1.8 mi NNE 10.4 mph - 0.01 in Snow Light Snow
2:22 AM 16.0 °F 3.6 °F 10.9 °F 81% 30.21 in 1.0 mi North 10.4 mph - 0.00 in Snow Light Snow
2:42 AM 14.0 °F -0.8 °F 10.0 °F 84% 30.21 in 0.8 mi North 13.8 mph 20.7 mph 0.00 in Snow Light Snow
2:51 AM 14.0 °F 2.0 °F 10.4 °F 86% 30.21 in 1.0 mi NNE 9.2 mph - 0.00 in Snow Light Snow
2:53 AM 14.0 °F 2.0 °F 10.0 °F 84% 30.25 in 1.2 mi North 9.2 mph 17.3 mph 0.00 in Snow Light Snow
3:05 AM 14.0 °F -2.0 °F 9.0 °F 80% 30.21 in 1.8 mi NE 16.1 mph 21.9 mph 0.00 in Snow Light Snow
3:29 AM 12.9 °F -2.2 °F 8.1 °F 81% 30.22 in 2.0 mi NNE 13.8 mph - 0.00 in Snow Light Snow
3:41 AM 12.9 °F 0.7 °F 8.1 °F 81% 30.22 in 2.5 mi NE 9.2 mph - 0.00 in Snow Light Snow
3:53 AM 12.9 °F 1.6 °F 8.1 °F 81% 30.26 in 2.5 mi NNE 8.1 mph 18.4 mph 0.01 in Snow Light Snow
4:11 AM 12.9 °F 1.6 °F 7.0 °F 77% 30.22 in 3.0 mi North 8.1 mph - 0.00 in Snow Light Snow
4:31 AM 12.9 °F 0.7 °F 7.0 °F 77% 30.23 in 2.5 mi NNE 9.2 mph - 0.00 in Snow Light Snow
4:42 AM 12.9 °F 0.7 °F 7.0 °F 77% 30.24 in 3.0 mi NNE 9.2 mph - 0.00 in Snow Light Snow
4:53 AM 12.9 °F 1.6 °F 7.0 °F 77% 30.28 in 2.0 mi NNE 8.1 mph - 0.00 in Snow Light Snow
4:59 AM 12.9 °F -0.2 °F 7.0 °F 77% 30.24 in 1.8 mi NNE 10.4 mph - 0.00 in Snow Light Snow
5:28 AM 12.0 °F 1.5 °F 7.0 °F 80% 30.25 in 3.0 mi NE 6.9 mph - 0.00 in Snow Light Snow
5:42 AM 12.9 °F 3.8 °F 7.0 °F 77% 30.25 in 8.0 mi ENE 5.8 mph - 0.00 in Snow Light Snow
5:53 AM 12.9 °F 1.6 °F 6.1 °F 74% 30.30 in 9.0 mi NNE 8.1 mph - 0.00 in   Overcast
6:53 AM 12.9 °F -1.6 °F 1.9 °F 62% 30.30 in 10.0 mi NNE 12.7 mph - N/A   Overcast
7:53 AM 12.0 °F -4.0 °F -0.0 °F 59% 30.32 in 10.0 mi NNE 15.0 mph 20.7 mph N/A   Mostly Cloudy
8:53 AM 12.9 °F 0.7 °F 1.0 °F 59% 30.34 in 10.0 mi North 9.2 mph - N/A   Mostly Cloudy
9:53 AM 12.9 °F 1.6 °F 1.0 °F 59% 30.35 in 10.0 mi NNE 8.1 mph - N/A   Scattered Clouds
10:53 AM 14.0 °F 2.0 °F -0.0 °F 54% 30.36 in 10.0 mi ENE 9.2 mph - N/A   Clear
11:53 AM 16.0 °F 6.3 °F -0.0 °F 49% 30.38 in 10.0 mi North 6.9 mph - N/A   Clear
12:53 PM 17.1 °F 5.8 °F 1.9 °F 52% 30.38 in 10.0 mi North 9.2 mph - N/A   Clear
1:53 PM 19.0 °F 12.3 °F -0.0 °F 43% 30.38 in 10.0 mi Variable 4.6 mph - N/A   Clear
2:53 PM 21.0 °F 11.4 °F 1.0 °F 42% 30.37 in 10.0 mi North 8.1 mph - N/A   Clear
3:53 PM 21.9 °F 13.4 °F -0.0 °F 38% 30.38 in 10.0 mi Variable 6.9 mph - N/A   Clear
4:53 PM 21.9 °F 17.2 °F -0.0 °F 38% 30.40 in 10.0 mi WNW 3.5 mph - N/A   Clear
5:53 PM 23.0 °F 17.0 °F -0.0 °F 37% 30.41 in 10.0 mi NNW 4.6 mph - N/A   Clear
6:53 PM 19.9 °F 14.9 °F -0.9 °F 40% 30.42 in 10.0 mi North 3.5 mph - N/A   Clear
7:53 PM 15.1 °F 6.4 °F 1.0 °F 54% 30.44 in 10.0 mi NW 5.8 mph - N/A   Clear
8:53 PM 14.0 °F 5.1 °F -0.9 °F 52% 30.44 in 10.0 mi NNW 5.8 mph - N/A   Clear
9:53 PM 10.9 °F 4.7 °F -0.0 °F 61% 30.46 in 10.0 mi NNW 3.5 mph - N/A   Clear
10:53 PM 10.0 °F 1.8 °F -0.0 °F 64% 30.44 in 10.0 mi North 4.6 mph - N/A   Clear
11:53 PM 6.1 °F -0.9 °F -0.9 °F 73% 30.43 in 10.0 mi North 3.5 mph - N/A   Clear